Regional Weather Roundup
Issued by NWS

Home | Current Version | Previous Version | Graphics & Text | Print | Product List | Glossary Off
Versions: 1 2 3 4 5 6 7 8 9 10 11 12 13 14 15 16 17 18 19 20 21 22 23 24 25 26 27 28 29 30 31 32 33 34 35 36 37 38 39 40 41 42 43 44 45 46 47 48 49 50

000
ASUS43 KFSD 210110
RWRSD

WEATHER ROUNDUP FOR SOUTH DAKOTA
NATIONAL WEATHER SERVICE SIOUX FALLS SD
700 PM CST MON NOV 20 2017

NOTE: "FAIR" INDICATES FEW OR NO CLOUDS BELOW 12,000 FEET WITH NO
SIGNIFICANT WEATHER AND/OR OBSTRUCTIONS TO VISIBILITY.


SDZ001>005-009-010-012>017-210200-
NORTHWEST AND NORTH CENTRAL SOUTH DAKOTA

CITY           SKY/WX    TMP DP  RH WIND       PRES   REMARKS
BUFFALO          N/A     40  26  57 N15       29.65R
FAITH            N/A     43  26  51 NW14      29.67R
MOBRIDGE       CLEAR     45  27  49 N15       29.61R
$$

SDZ012>016-024>037-041>051-057-063-072>074-210200-
SOUTHWEST AND SOUTH CENTRAL SOUTH DAKOTA

CITY           SKY/WX    TMP DP  RH WIND       PRES   REMARKS
RAPID CTY ARPT CLEAR     44  22  41 VRB5      29.73R
PIERRE         CLEAR     48  25  40 NW13      29.65R
CUSTER         CLOUDY    41  20  43 NW6       29.75F
ELLSWORTH AFB  CLEAR     46  22  38 N10       29.70S
PHILIP         CLEAR     46  24  42 NW13      29.68S
PINE RIDGE     CLOUDY    53  21  28 W8        29.73R
SPEARFISH      FAIR      45  21  39 W6        29.74R
WINNER         FAIR      52  21  29 NW10      29.68R
$$

SDZ004>011-016>023-039-040-210200-
NORTHEAST SOUTH DAKOTA

CITY           SKY/WX    TMP DP  RH WIND       PRES   REMARKS
ABERDEEN       CLEAR     46  26  45 N21       29.61R
WATERTOWN      CLEAR     46  22  38 W14       29.54R
BROOKINGS      CLEAR     39  24  55 W6        29.57R
SISSETON         N/A     47  27  45 NW25G32   29.53R
$$

SDZ017-020-022-023-036>040-048>070-210200-
SOUTHEAST SOUTH DAKOTA

CITY           SKY/WX    TMP DP  RH WIND       PRES   REMARKS
SIOUX FALLS    CLOUDY    43  27  53 W5        29.58R
HURON          CLEAR     34  20  56 NW9       29.60R WCI  27
CHAMBERLAIN    CLEAR     49  22  34 NW7       29.64R
MITCHELL       CLEAR     44  24  45 NW9       29.61R
YANKTON        CLOUDY    44  26  49 CALM      29.62R
$$

ABBREVIATIONS USED IN REMARKS
   TC - TEMPERATURE IN CELSIUS
  WCI - WIND CHILL INDEX
   HX - HEAT INDEX
  VSB - VISIBILITY





USA.gov is the U.S. government's official web portal to all federal, state and local government web resources and services.